Location: Unspecified
(50.7693°N, 0.0000°E)
Time: 20:00:35
(UTC+00:00)

Transit 2A Rocket - Pass Details

Date: 25 October 2019
Orbit: 594 x 909 km, 66.7° (Epoch: 17 November)

Event Time Altitude Azimuth Distance (km) Brightness Sun altitude
Exits shadow 05:06:54 24° 259° (W) 1,383 5.7 -15.1°
Maximum altitude 05:09:17 42° 316° (NW) 938 5.1 -14.8°
Drops below altitude 10° 05:13:36 10° 28° (NNE) 2,012 7.5 -14.1°
Sets 05:15:55 0° 36° (NE) 2,893 8.5 -13.7°
